Flag for Italy Weather past 2 weeks in Firenze, Italy

Now
88 °F

Scattered clouds.


Feels Like: 87 °F
Forecast: 69 / 90 °F
Wind: 7 mph from West

Location: Florence / Peretola

Current Time: Aug 1, 2015 at 4:34:02 PM

Latest Report: Aug 1, 2015 at 3:50 PM


Visibility: N/A

Pressure: 29.89 "Hg

Humidity: 38%

Dew point: 59 °F

Location of FirenzeLocation

Historic Weather in Firenze — Graph

°F

Firenze temperature yesterday

Maximum temperature yesterday: 90 °F (at 1:50 PM)
Minimum temperature yesterday: 68 °F (at 5:50 AM)
Average temperature yesterday: 80 °F

Past Weeks' High & Low Weather Summary

 TemperatureHumidityPressure
High102 °F (Jul 22, 4:50 PM)94% (Jul 23, 2:20 AM)30.07 "Hg (Jul 23, 2:20 AM)
Low66 °F (Jul 19, 6:20 AM)16% (Jul 22, 2:50 PM)29.74 "Hg (Jul 23, 5:20 PM)
Average81 °F54%29.86 "Hg
* Reported Jul 17 3:20 PM — Aug 1 3:20 PM, Firenze, Weather by CustomWeather, © 2015

Note: Actual official high and low records may vary slightly from our data, if they occured in-between our weather recording intervals... More about our weather records

Advertising

Firenze weather history for previous 24 hours

 ConditionsComfort  
Time TempWeatherWind HumidityBarometerVisibility
3:20 PM
Sat, Aug 1
90 °FPassing clouds.8 mph36%29.89 "HgN/A
2:50 PM90 °FPassing clouds.10 mph33%29.89 "HgN/A
2:20 PM88 °FPassing clouds.6 mph33%29.92 "HgN/A
1:50 PM90 °FSunny.5 mph31%29.92 "Hg10 mi
1:20 PM91 °FPassing clouds.5 mph30%29.92 "HgN/A
12:50 PM88 °FPassing clouds.5 mph33%29.92 "HgN/A
12:20 PM90 °FPassing clouds.6 mph29%29.92 "HgN/A
11:50 AM88 °FSunny.5 mph31%29.92 "Hg10 mi
11:20 AM84 °FSunny.5 mph37%29.92 "Hg10 mi
10:50 AM82 °FSunny.2 mph40%29.92 "Hg10 mi
10:20 AM81 °FSunny.2 mph42%29.92 "Hg10 mi
9:50 AM81 °FPassing clouds.3 mph42%29.92 "HgN/A
9:20 AM81 °FSunny.2 mph42%29.92 "Hg10 mi
8:50 AM77 °FSunny.2 mph51%29.92 "Hg10 mi
8:20 AM75 °FPassing clouds.3 mph57%29.92 "HgN/A
7:50 AM73 °FPassing clouds.3 mph61%29.92 "HgN/A
7:20 AM73 °FSunny.No wind57%29.92 "Hg10 mi
6:50 AM70 °FClear.1 mph73%29.92 "Hg10 mi
6:20 AM70 °FClear.2 mph69%29.92 "Hg10 mi
5:50 AM68 °FClear.1 mph78%29.92 "Hg10 mi
5:20 AM66 °FClear.1 mph78%29.92 "Hg10 mi
4:50 AM68 °FClear.1 mph73%29.92 "Hg10 mi
4:20 AM72 °FClear.5 mph65%29.89 "Hg10 mi
3:50 AM72 °FPassing clouds.3 mph65%29.89 "HgN/A
3:20 AM72 °FClear.3 mph65%29.89 "Hg10 mi
2:50 AM70 °FClear.2 mph69%29.89 "Hg10 mi
2:20 AM73 °FPassing clouds.3 mph61%29.89 "HgN/A
1:50 AM75 °FClear.6 mph57%29.89 "Hg10 mi
1:20 AM73 °FPassing clouds.6 mph65%29.89 "HgN/A
12:50 AM73 °FClear.1 mph65%29.89 "Hg10 mi
12:20 AM75 °FClear.2 mph61%29.89 "Hg10 mi
11:50 PM
Fri, Jul 31
77 °FClear.1 mph54%29.89 "Hg10 mi
11:20 PM77 °FPassing clouds.5 mph57%29.89 "HgN/A
10:50 PM75 °FClear.1 mph57%29.89 "Hg10 mi
10:20 PM77 °FPassing clouds.3 mph54%29.89 "HgN/A
9:50 PM77 °FClear.2 mph54%29.89 "Hg10 mi
9:20 PM79 °FPassing clouds.3 mph51%29.89 "HgN/A
8:50 PM79 °FSunny.2 mph51%29.86 "Hg10 mi
8:20 PM81 °FPassing clouds.5 mph48%29.86 "HgN/A
7:50 PM82 °FPassing clouds.7 mph45%29.86 "HgN/A
7:20 PM84 °FPassing clouds.8 mph43%29.83 "HgN/A
6:50 PM86 °FPassing clouds.8 mph40%29.83 "HgN/A
6:20 PM86 °FPassing clouds.12 mph40%29.86 "HgN/A
5:50 PM88 °FPassing clouds.12 mph35%29.83 "HgN/A
5:20 PM88 °FPassing clouds.10 mph38%29.83 "HgN/A
4:50 PM90 °FPassing clouds.10 mph36%29.83 "HgN/A
4:20 PM90 °FPassing clouds.13 mph36%29.83 "HgN/A
Weather by CustomWeather, © 2015

See weather overviewHow to use our weather pages